sat.trackr.live / text

‹ back to catalog

STARLINK-32455

NORAD 61632 · 2024-191M

PAYLOAD ACTIVE UNKNOWN

§ Identity

Operator
Country
US
Launch date
2024-10-23
Launch site
AFETR
Launch vehicle
Mass (kg)
RCS (m²)

Purposes: comms

External: N2YO · Heavens-Above · Gunter

§ Orbital elements

Epoch: 2026-09-21T00:04:27.705216Z

Period
94.27 min
Inclination
43.0005°
Eccentricity
0.0001117
Mean motion
15.27576316 rev/d
Perigee alt
482.3 km
Apogee alt
483.8 km
Semi-major
6,861.2 km
B*
-2.8803e-6
RAAN
135.2337°
Arg perigee
273.1694°
Mean anomaly
86.9029°
Rev number
10,736

§ Raw data

STARLINK-324551 61632U 24191M   26264.00309844 -.00000341  00000+0 -28803-5 0  99982 61632  43.0005 135.2337 0001117 273.1694  86.9029 15.27576316107362

JSON: /api/v1/satellites/61632 · /tle

For live sub-satellite position, see the globe view (requires WebGL).

§ Visibility from observer

Set your observer location to see the next 7 days of passes ≥ 10°. The values pass through the URL so the page stays shareable.

No JS? Fill the form by hand. The geolocation button needs JavaScript.